Time,TemperatureF,DewpointF,PressureIn,WindDirection,WindDirectionDegrees,WindSpeedMPH,WindSpeedGustMPH,Humidity,HourlyPrecipIn,Conditions,Clouds,dailyrainin,SoftwareType,DateUTC
2013-02-25 00:22:00,28.0,-99.9,30.02,South,179,-999.0,-999.0,-999,-99.99,,,-99.99,,2013-02-25 05:22:00,
2013-02-25 00:32:00,28.0,-99.9,30.02,South,179,-999.0,-999.0,-999,-99.99,,,-99.99,,2013-02-25 05:32:00,
2013-02-25 00:42:00,28.0,-99.9,30.02,South,179,-999.0,-999.0,-999,-99.99,,,-99.99,,2013-02-25 05:42:00,
2013-02-25 00:52:00,28.0,-99.9,30.04,NW,306,-999.0,7.0,-999,-99.99,,,-99.99,,2013-02-25 05:52:00,
2013-02-25 01:22:00,28.0,-99.9,30.04,NW,306,-999.0,7.0,-999,-99.99,,,-99.99,,2013-02-25 06:22:00,
2013-02-25 01:32:00,28.0,-99.9,30.04,NW,306,-999.0,7.0,-999,-99.99,,,-99.99,,2013-02-25 06:32:00,
2013-02-25 01:42:00,28.0,-99.9,30.04,NW,306,-999.0,7.0,-999,-99.99,,,-99.99,,2013-02-25 06:42:00,
2013-02-25 02:21:00,29.0,-99.9,30.06,WSW,253,-999.0,-999.0,-999,-99.99,,,-99.99,,2013-02-25 07:21:00,
2013-02-25 02:32:00,29.0,-99.9,30.06,WSW,253,-999.0,-999.0,-999,-99.99,,,-99.99,,2013-02-25 07:32:00,
2013-02-25 02:42:00,29.0,-99.9,30.06,WSW,253,-999.0,-999.0,-999,-99.99,,,-99.99,,2013-02-25 07:42:00,
2013-02-25 02:52:00,29.0,-99.9,30.06,WSW,253,-999.0,-999.0,-999,-99.99,,,-99.99,,2013-02-25 07:52:00,
2013-02-25 03:22:00,27.0,-99.9,30.06,SE,132,-999.0,-999.0,-999,-99.99,,,-99.99,,2013-02-25 08:22:00,
2013-02-25 03:32:00,27.0,-99.9,30.06,SE,132,-999.0,-999.0,-999,-99.99,,,-99.99,,2013-02-25 08:32:00,
2013-02-25 03:42:00,27.0,-99.9,30.06,SE,132,-999.0,-999.0,-999,-99.99,,,-99.99,,2013-02-25 08:42:00,
2013-02-25 03:52:00,27.0,-99.9,30.06,SE,132,-999.0,-999.0,-999,-99.99,,,-99.99,,2013-02-25 08:52:00,
2013-02-25 04:21:00,28.0,-99.9,30.07,SE,132,-999.0,-999.0,-999,-99.99,,,-99.99,,2013-02-25 09:21:00,
2013-02-25 04:32:00,28.0,-99.9,30.07,SE,132,-999.0,-999.0,-999,-99.99,,,-99.99,,2013-02-25 09:32:00,
2013-02-25 04:42:00,28.0,-99.9,30.07,SE,132,-999.0,-999.0,-999,-99.99,,,-99.99,,2013-02-25 09:42:00,
2013-02-25 04:52:00,28.0,-99.9,30.08,South,180,-999.0,-999.0,-999,-99.99,,,-99.99,,2013-02-25 09:52:00,
2013-02-25 05:22:00,28.0,-99.9,30.08,South,180,-999.0,-999.0,-999,-99.99,,,-99.99,,2013-02-25 10:22:00,
2013-02-25 05:32:00,28.0,-99.9,30.08,South,180,-999.0,-999.0,-999,-99.99,,,-99.99,,2013-02-25 10:32:00,
2013-02-25 05:42:00,28.0,-99.9,30.08,South,180,-999.0,-999.0,-999,-99.99,,,-99.99,,2013-02-25 10:42:00,
2013-02-25 05:52:00,30.0,-99.9,30.10,SSE,150,-999.0,-999.0,-999,-99.99,,,-99.99,,2013-02-25 10:52:00,
2013-02-25 06:22:00,30.0,-99.9,30.10,SSE,150,-999.0,-999.0,-999,-99.99,,,-99.99,,2013-02-25 11:22:00,
2013-02-25 06:32:00,30.0,-99.9,30.10,SSE,150,-999.0,-999.0,-999,-99.99,,,-99.99,,2013-02-25 11:32:00,
2013-02-25 06:42:00,30.0,-99.9,30.10,SSE,150,-999.0,-999.0,-999,-99.99,,,-99.99,,2013-02-25 11:42:00,
2013-02-25 06:52:00,30.0,-99.9,30.11,NW,318,-999.0,-999.0,-999,-99.99,,,-99.99,,2013-02-25 11:52:00,
2013-02-25 07:22:00,30.0,-99.9,30.11,NW,318,-999.0,-999.0,-999,-99.99,,,-99.99,,2013-02-25 12:22:00,
2013-02-25 07:32:00,30.0,-99.9,30.11,NW,318,-999.0,-999.0,-999,-99.99,,,-99.99,,2013-02-25 12:32:00,
2013-02-25 07:42:00,30.0,-99.9,30.11,NW,318,-999.0,-999.0,-999,-99.99,,,-99.99,,2013-02-25 12:42:00,
2013-02-25 08:23:00,33.0,-99.9,30.14,South,186,-999.0,-999.0,-999,-99.99,,,-99.99,,2013-02-25 13:23:00,
2013-02-25 08:32:00,33.0,-99.9,30.14,South,186,-999.0,-999.0,-999,-99.99,,,-99.99,,2013-02-25 13:32:00,
2013-02-25 08:42:00,33.0,-99.9,30.14,South,186,-999.0,-999.0,-999,-99.99,,,-99.99,,2013-02-25 13:42:00,
2013-02-25 08:52:00,34.0,-99.9,30.15,NNE,16,-999.0,-999.0,-999,-99.99,,,-99.99,,2013-02-25 13:52:00,
2013-02-25 09:22:00,34.0,-99.9,30.15,NNE,16,-999.0,-999.0,-999,-99.99,,,-99.99,,2013-02-25 14:22:00,
2013-02-25 09:32:00,34.0,-99.9,30.15,NNE,16,-999.0,-999.0,-999,-99.99,,,-99.99,,2013-02-25 14:32:00,
2013-02-25 09:42:00,34.0,-99.9,30.15,NNE,16,-999.0,-999.0,-999,-99.99,,,-99.99,,2013-02-25 14:42:00,
2013-02-25 09:52:00,35.0,-99.9,30.16,NNE,23,4.0,8.0,-999,-99.99,,,-99.99,,2013-02-25 14:52:00,
2013-02-25 10:22:00,35.0,-99.9,30.16,NNE,23,4.0,8.0,-999,-99.99,,,-99.99,,2013-02-25 15:22:00,
2013-02-25 10:32:00,35.0,-99.9,30.16,NNE,23,4.0,8.0,-999,-99.99,,,-99.99,,2013-02-25 15:32:00,
2013-02-25 10:42:00,35.0,-99.9,30.16,NNE,23,4.0,8.0,-999,-99.99,,,-99.99,,2013-02-25 15:42:00,
2013-02-25 11:22:00,39.0,-99.9,30.17,ENE,69,-999.0,7.0,-999,-99.99,,,-99.99,,2013-02-25 16:22:00,
2013-02-25 11:32:00,39.0,-99.9,30.17,ENE,69,-999.0,7.0,-999,-99.99,,,-99.99,,2013-02-25 16:32:00,
2013-02-25 11:42:00,39.0,-99.9,30.17,ENE,69,-999.0,7.0,-999,-99.99,,,-99.99,,2013-02-25 16:42:00,
2013-02-25 11:52:00,39.0,-99.9,30.17,ENE,69,-999.0,7.0,-999,-99.99,,,-99.99,,2013-02-25 16:52:00,
2013-02-25 12:22:00,42.0,-99.9,30.18,NE,47,-999.0,10.0,-999,-99.99,,,-99.99,,2013-02-25 17:22:00,
2013-02-25 12:32:00,42.0,-99.9,30.18,NE,47,-999.0,10.0,-999,-99.99,,,-99.99,,2013-02-25 17:32:00,
2013-02-25 12:42:00,42.0,-99.9,30.18,NE,47,-999.0,10.0,-999,-99.99,,,-99.99,,2013-02-25 17:42:00,
2013-02-25 12:52:00,42.0,-99.9,30.16,NE,49,-999.0,9.0,-999,-99.99,,,-99.99,,2013-02-25 17:52:00,
2013-02-25 13:33:00,42.0,-99.9,30.16,NE,49,-999.0,9.0,-999,-99.99,,,-99.99,,2013-02-25 18:33:00,
2013-02-25 13:42:00,42.0,-99.9,30.16,NE,49,-999.0,9.0,-999,-99.99,,,-99.99,,2013-02-25 18:42:00,
2013-02-25 15:22:00,41.0,-99.9,30.17,NE,43,-999.0,7.0,-999,-99.99,,,-99.99,,2013-02-25 20:22:00,
2013-02-25 15:32:00,41.0,-99.9,30.17,NE,43,-999.0,7.0,-999,-99.99,,,-99.99,,2013-02-25 20:32:00,
2013-02-25 15:42:00,41.0,-99.9,30.17,NE,43,-999.0,7.0,-999,-99.99,,,-99.99,,2013-02-25 20:42:00,
2013-02-25 15:52:00,41.0,-99.9,30.17,NE,43,-999.0,7.0,-999,-99.99,,,-99.99,,2013-02-25 20:52:00,
2013-02-25 16:22:00,41.0,-99.9,30.18,NE,52,6.0,-999.0,-999,-99.99,,,-99.99,,2013-02-25 21:22:00,
2013-02-25 16:32:00,41.0,-99.9,30.18,NE,52,6.0,-999.0,-999,-99.99,,,-99.99,,2013-02-25 21:32:00,
2013-02-25 16:42:00,41.0,-99.9,30.18,NE,52,6.0,-999.0,-999,-99.99,,,-99.99,,2013-02-25 21:42:00,
2013-02-25 17:21:00,40.0,-99.9,30.18,ENE,60,-999.0,-999.0,-999,-99.99,,,-99.99,,2013-02-25 22:21:00,
2013-02-25 17:32:00,40.0,-99.9,30.18,ENE,60,-999.0,-999.0,-999,-99.99,,,-99.99,,2013-02-25 22:32:00,
2013-02-25 17:42:00,40.0,-99.9,30.18,ENE,60,-999.0,-999.0,-999,-99.99,,,-99.99,,2013-02-25 22:42:00,
2013-02-25 17:52:00,40.0,-99.9,30.18,ENE,60,-999.0,-999.0,-999,-99.99,,,-99.99,,2013-02-25 22:52:00,
2013-02-25 18:22:00,36.0,-99.9,30.20,ENE,60,-999.0,-999.0,-999,-99.99,,,-99.99,,2013-02-25 23:22:00,
2013-02-25 18:32:00,36.0,-99.9,30.20,ENE,60,-999.0,-999.0,-999,-99.99,,,-99.99,,2013-02-25 23:32:00,
2013-02-25 18:42:00,36.0,-99.9,30.20,ENE,60,-999.0,-999.0,-999,-99.99,,,-99.99,,2013-02-25 23:42:00,
2013-02-25 19:22:00,31.0,-99.9,30.21,ENE,60,-999.0,-999.0,-999,-99.99,,,-99.99,,2013-02-26 00:22:00,
2013-02-25 19:32:00,31.0,-99.9,30.21,ENE,60,-999.0,-999.0,-999,-99.99,,,-99.99,,2013-02-26 00:32:00,
2013-02-25 19:52:00,29.0,-99.9,30.23,ENE,60,-999.0,-999.0,-999,-99.99,,,-99.99,,2013-02-26 00:52:00,
2013-02-25 20:22:00,29.0,-99.9,30.23,ENE,60,-999.0,-999.0,-999,-99.99,,,-99.99,,2013-02-26 01:22:00,
2013-02-25 20:32:00,29.0,-99.9,30.23,ENE,60,-999.0,-999.0,-999,-99.99,,,-99.99,,2013-02-26 01:32:00,
2013-02-25 20:42:00,29.0,-99.9,30.23,ENE,60,-999.0,-999.0,-999,-99.99,,,-99.99,,2013-02-26 01:42:00,
2013-02-25 20:52:00,28.0,-99.9,30.24,ENE,60,-999.0,-999.0,-999,-99.99,,,-99.99,,2013-02-26 01:52:00,
2013-02-25 21:22:00,28.0,-99.9,30.24,ENE,60,-999.0,-999.0,-999,-99.99,,,-99.99,,2013-02-26 02:22:00,
2013-02-25 21:32:00,28.0,-99.9,30.24,ENE,60,-999.0,-999.0,-999,-99.99,,,-99.99,,2013-02-26 02:32:00,
2013-02-25 21:42:00,28.0,-99.9,30.24,ENE,60,-999.0,-999.0,-999,-99.99,,,-99.99,,2013-02-26 02:42:00,
2013-02-25 21:52:00,26.0,-99.9,30.26,ENE,60,-999.0,-999.0,-999,-99.99,,,-99.99,,2013-02-26 02:52:00,
2013-02-25 22:22:00,26.0,-99.9,30.26,ENE,60,-999.0,-999.0,-999,-99.99,,,-99.99,,2013-02-26 03:22:00,
2013-02-25 22:32:00,26.0,-99.9,30.26,ENE,60,-999.0,-999.0,-999,-99.99,,,-99.99,,2013-02-26 03:32:00,
2013-02-25 22:42:00,26.0,-99.9,30.26,ENE,60,-999.0,-999.0,-999,-99.99,,,-99.99,,2013-02-26 03:42:00,
2013-02-25 22:52:00,26.0,-99.9,30.24,ENE,60,-999.0,-999.0,-999,-99.99,,,-99.99,,2013-02-26 03:52:00,
2013-02-25 23:22:00,26.0,-99.9,30.24,ENE,60,-999.0,-999.0,-999,-99.99,,,-99.99,,2013-02-26 04:22:00,
2013-02-25 23:32:00,26.0,-99.9,30.24,ENE,60,-999.0,-999.0,-999,-99.99,,,-99.99,,2013-02-26 04:32:00,
2013-02-25 23:43:00,26.0,-99.9,30.24,ENE,60,-999.0,-999.0,-999,-99.99,,,-99.99,,2013-02-26 04:43:00,
2013-02-25 23:52:00,24.0,-99.9,30.23,ENE,60,-999.0,-999.0,-999,-99.99,,,-99.99,,2013-02-26 04:52:00,